Regional Weather Roundup
Issued by NWS

Home | Current Version | Previous Version | Graphics & Text | Print | Product List | Glossary On
Versions: 1 2 3 4 5 6 7 8 9 10 11 12 13 14 15 16 17 18 19 20 21 22 23 24 25 26 27 28 29 30 31 32 33 34 35 36 37 38 39 40 41 42 43 44 45 46 47 48 49 50
000
ASUS43 KIND 211359
RWRIN

WEATHER ROUNDUP FOR INDIANA
NATIONAL WEATHER SERVICE INDIANAPOLIS IN
1000 AM EDT THU AUG 21 2014

NOTE: "FAIR" INDICATES FEW OR NO CLOUDS BELOW 12,000 FEET WITH NO
SIGNIFICANT WEATHER AND/OR OBSTRUCTIONS TO VISIBILITY.

* - STATION DOES NOT REPORT WEATHER SUCH AS PRECIPITATION OR FOG.

+ - STATION NOT QUALITY CONTROLLED BY THE NATIONAL WEATHER SERVICE.
    USE DATA WITH CAUTION...ESPECIALLY DEWPOINT AND RELATIVE
    HUMIDITY OBSERVATIONS.

INZ001>003-010>013-019-020-211500-
NORTHWEST INDIANA

CITY           SKY/WX    TMP DP  RH WIND       PRES   REMARKS
GARY /AIRPORT/ TSTM      73  72  94 SW9       30.02R
KNOX *+        CLOUDY    70  67  92 CALM      29.99S
MONTICELLO +   LGT RAIN  71  70  96 CALM      30.01R
VALPARAISO     RAIN      69  68  96 W5        30.02R FOG

$$

LMZ046-743>745-211500-
SOUTHERN LAKE MICHIGAN

STATION/POSITION TIME  TEMP WIND        PRES
                       AIR  DIR/SP/G
                 (UTC) (F)  (DEG/KT/KT) (MB)
BURNS HARBOR     1300   72  210/ 12/ 18   N/A
MICHIGAN CITY    1300   71  180/ 12/ 17   N/A

$$

INZ004-005-014>016-021>024-211500-
NORTH CENTRAL INDIANA

CITY           SKY/WX    TMP DP  RH WIND       PRES   REMARKS
ELKHART        CLOUDY    72  66  83 CALM      30.02R
GOSHEN         CLOUDY    74  68  81 SW8       30.02R
PERU/GRISSOM   DRIZZLE   70  70 100 S3        30.03R
SOUTH BEND     CLOUDY    72  67  84 W6        30.01R
WARSAW +       LGT RAIN  70  68  94 CALM      30.03R

$$

INZ006>009-017-018-025>027-211500-
NORTHEAST INDIANA

CITY           SKY/WX    TMP DP  RH WIND       PRES   REMARKS
ANGOLA *+      MOSUNNY   75  66  73 W3        30.01R
FORT WAYNE     CLOUDY    73  69  87 SW7       30.03R

$$

INZ028-029-035-036-043>045-051>053-211500-
WEST CENTRAL INDIANA

CITY           SKY/WX    TMP DP  RH WIND       PRES   REMARKS
GREENCASTLE +  PTSUNNY   73  72  94 CALM      30.03S
LAFAYETTE      CLOUDY    71  70  96 CALM      30.01R
TERRE HAUTE    MOSUNNY   77  71  82 SW8       30.02R

$$

INZ030>032-037>040-046>048-054>057-064-065-211500-
CENTRAL INDIANA

CITY           SKY/WX    TMP DP  RH WIND       PRES   REMARKS
COLUMBUS       PTSUNNY   72  72 100 S7        30.04S
FRANKFORT +    CLOUDY   N/A N/A N/A CALM      30.04R
INDIANAPOLIS   CLOUDY    73  69  87 S8        30.01R
-EAGLE CREEK   CLOUDY    73  69  87 S6        30.01R
KOKOMO *+      CLOUDY    70  66  88 S7        30.04R
MT COMFORT *+  CLOUDY    70 N/A N/A S9        30.02S
SHELBYVILLE    CLOUDY    73  32  22 SE7       30.03F

$$

INZ033-034-041-042-049-050-058-059-211500-
EAST CENTRAL INDIANA

CITY           SKY/WX    TMP DP  RH WIND       PRES   REMARKS
MUNCIE         TSTM      70  68  93 W8        30.07R VSB 3/4

$$

INZ060-061-067>069-081>083-085>088-211500-
SOUTHWEST INDIANA

CITY           SKY/WX    TMP DP  RH WIND       PRES   REMARKS
EVANSVILLE     MOSUNNY   78  73  84 SW8       30.06R

$$

INZ062-063-066-070>080-084-089>092-211500-
SOUTH CENTRAL AND SOUTHEAST INDIANA

CITY           SKY/WX    TMP DP  RH WIND       PRES   REMARKS
BLOOMINGTON    PTSUNNY   77  71  82 SW7       30.03S
SEYMOUR +      CLOUDY    70  61  73 E5        30.05

$$



USA.gov is the U.S. government's official web portal to all federal, state and local government web resources and services.